Find TDF 1

NORAD ID: 19621 Int'l Des: 1988-098 Owner: FTEL Country: F operational
HEOCIRCULAR

Live Position

Loading 3D Globe...

About TDF 1

Description loading...

Upcoming Passes

Passes for default location (London). Set your location on the main map for personalized predictions.

Altitude History

Loading altitude history...

Two-Line Element Set

1 19621U 88098A 26106.21641779 -.00000007 00000-0 00000-0 0 9992
2 19621 14.7422 350.8072 0009634 270.8533 279.5610 0.99191278133234
Epoch: Apr 16, 2026 • Age: 30 hours

Current Status

Altitude 36054.3 km
Velocity 3.07 km/s
Sub-Earth Point -14.73°S, 105.77°W
Launch Date Oct 28, 1988
Age 37.4 years
Type other

Technical Details

Classification Payload
Mass 2077.00 kg
Dry Mass 1034.00 kg
Total Mass 2077.00 kg
Length 6.20 m
Diameter 2.00 m
Span 19.30 m
Shape Box + 2 Pan
Manufacturer AESPC
Bus Type Spacebus 300
Phase Status In Orbit
Owner/State FTEL/F

Most Searched